Regional Weather Roundup
Issued by NWS

Home | Current Version | Previous Version | Graphics & Text | Print | Product List | Glossary Off
Versions: 1 2 3 4 5 6 7 8 9 10 11 12 13 14 15 16 17 18 19 20 21 22 23 24 25 26 27 28 29 30 31 32 33 34 35 36 37 38 39 40 41 42 43 44 45 46 47 48 49 50

963
ASUS43 KTOP 111708
RWRKS

WEATHER ROUNDUP FOR KANSAS
NATIONAL WEATHER SERVICE GOODLAND KS
1100 AM CST THU FEB 11 2016

NOTE:  "FAIR" INDICATES FEW OR NO CLOUDS BELOW 12,000 FEET WITH NO
SIGNIFICANT WEATHER AND/OR OBSTRUCTIONS TO VISIBILITY.

KSZ001>006-013>018-027>032-041>047-111800-
NORTHWEST KANSAS

CITY           SKY/WX    TMP DP  RH WIND       PRES   REMARKS
GOODLAND       CLOUDY    50  25  37 SW13      30.13F
HAYS           CLOUDY    28  18  64 CALM      30.24S
HILL CITY      CLOUDY    30  28  92 S6        30.22S FOG
RUSSELL        PTSUNNY   34  26  72 NE7       30.23S
$$

KSZ061>065-074>080-084>089-111800-
SOUTHWEST KANSAS

CITY           SKY/WX    TMP DP  RH WIND       PRES   REMARKS
DODGE CITY     SUNNY     36  27  69 CALM      30.21F
ELKHART          N/A     49  28  44 S7          N/A
GARDEN CITY    MOSUNNY   42  30  62 SW7       30.20F
GREAT BEND     CLOUDY    28  19  69 E7        30.24S
LIBERAL        SUNNY     45  30  57 CALM      30.23S
PRATT          PTSUNNY   30  24  77 E6        30.23F
$$

KSZ066>073-081>083-090>101-111800-
SOUTHEAST KANSAS

CITY           SKY/WX    TMP DP  RH WIND       PRES   REMARKS
CHANUTE        SUNNY     36  22  56 NE9       30.27R
COFFEYVILLE    SUNNY     38  23  55 NE13      30.26R WCI  30
HUTCHINSON     SUNNY     35  23  61 NE8       30.25S
MEDICINE LODGE   N/A     39  26  59 NE7       30.24F
NEWTON         SUNNY     34  19  55 NE3       30.27R
PARSONS        SUNNY     37  23  56 NE10      30.26S WCI  30
WICHITA INTL   MOSUNNY   37  22  54 NE9       30.24F
WICHITA JABRA  SUNNY     35  23  61 VRB7      30.24F
WICHITA MCCONL SUNNY     35  23  59 NE8       30.23F
WINFIELD       SUNNY     41  24  51 NE9       30.24F
$$

KSZ007>012-019>026-033>040-048>060-102>105-111800-
NORTHEAST KANSAS

CITY           SKY/WX    TMP DP  RH WIND       PRES   REMARKS
CONCORDIA      CLOUDY    23  21  92 E3        30.28R FOG
EMPORIA        SUNNY     32  22  66 NE7       30.27F
LAWRENCE       SUNNY     31  19  61 VRB5      30.30F
MANHATTAN      CLOUDY    26  22  84 SE5       30.29F
MARYSVILLE     CLOUDY    25  21  86 CALM      30.30R
OLATHE IND     SUNNY     31  19  61 E9        30.29F
OLATHE EXE     SUNNY     31  18  58 E8        30.29F
SALINA         CLOUDY    29  23  78 VRB3      30.28F
TOPEKA BILLARD SUNNY     31  20  63 E7        30.30F
TOPEKA FORBES  SUNNY     32  21  64 E9        30.28F
$$




USA.gov is the U.S. government's official web portal to all federal, state and local government web resources and services.